Asheville, NC

8:33 AM EDT on October 24, 2017 (GMT -0400)
Asheville Regional

Weather History for KAVL - May, 2009

Change the Weather History Date:

Saturday, May 30, 2009

  Actual Average Record
Temperature  
Mean Temperature 66 °F 67 °F  
Max Temperature 78 °F 78 °F 91 °F (1969)
Min Temperature 54 °F 55 °F 40 °F (1893)
Degree Days  
Heating Degree Days 0 1  
Month to date heating degree days 76 108  
Since 1 July heating degree days 4213 4180  
Cooling Degree Days 1 3  
Month to date cooling degree days 47 50  
Year to date cooling degree days 51 58  
Growing Degree Days 16 (Base 50)    
Moisture  
Dew Point 54 °F    
Average Humidity 67    
Maximum Humidity 93    
Minimum Humidity 40    
Precipitation  
Precipitation 0.00 in 0.13 in 4.18 in (1889)
Month to date precipitation 9.18 3.53  
Year to date precipitation 21.06 18.12  
Snow  
Snow 0.00 in 0.00 in 0.00 in ()
Month to date snowfall 0.0 0.0  
Since 1 July snowfall 6.1 9.9  
Snow Depth 0.00 in    
Sea Level Pressure  
Sea Level Pressure 29.91 in    
Wind  
Wind Speed 7 mph (NNW)    
Max Wind Speed 17 mph    
Max Gust Speed 23 mph    
Visibility 10 miles    
Events      
T = Trace of Precipitation, MM = Missing Value Source: NWS Daily Summary

Daily Weather History Graph

Daily Weather History Graph

Search for Another Location

Airport or City:

Trip Planner

Search our weather history database for the weather conditions in past years. The results will help you decide how hot, cold, wet, or windy it might be!

Date:

Astronomy

May. 30, 2009 Rise Set
Actual Time 6:16 AM EDT 8:38 PM EDT
Civil Twilight 5:47 AM EDT 9:08 PM EDT
Nautical Twilight 5:11 AM EDT 9:44 PM EDT
Astronomical Twilight 4:32 AM EDT 10:23 PM EDT
Moon 12:55 PM EDT (5/30) 1:22 AM EDT (5/30)
Length of Visible Light 15h 20m
Length of Day
14h 22m
Waxing Crescent, 45% of the Moon is Illuminated
May 30
Waxing Crescent
May 30
First Quarter
Jun 7
Full
Jun 15
Last Quarter
Jun 22
New

Hourly Weather History & Observations

Time (EDT) Temp. Dew Point Humidity Pressure Visibility Wind Dir Wind Speed Gust Speed Precip Events Conditions
12:54 AM 60.1 °F 55.0 °F 83% 29.88 in 10.0 mi NNW 12.7 mph - N/A   Clear
1:54 AM 60.1 °F 54.0 °F 80% 29.88 in 10.0 mi NNW 8.1 mph - N/A   Clear
2:54 AM 59.0 °F 54.0 °F 83% 29.88 in 10.0 mi North 6.9 mph - N/A   Clear
3:54 AM 57.9 °F 53.1 °F 84% 29.89 in 10.0 mi NNW 9.2 mph - N/A   Clear
4:54 AM 55.9 °F 53.1 °F 90% 29.89 in 10.0 mi NNW 4.6 mph - N/A   Clear
5:54 AM 55.9 °F 53.1 °F 90% 29.90 in 10.0 mi North 4.6 mph - N/A   Clear
6:54 AM 55.9 °F 53.1 °F 90% 29.92 in 10.0 mi North 8.1 mph - N/A   Clear
7:54 AM 57.9 °F 52.0 °F 81% 29.93 in 10.0 mi North 6.9 mph - N/A   Clear
8:54 AM 62.1 °F 53.1 °F 72% 29.94 in 10.0 mi North 8.1 mph - N/A   Clear
9:54 AM 66.0 °F 53.1 °F 63% 29.95 in 10.0 mi North 10.4 mph 16.1 mph N/A   Clear
10:54 AM 68.0 °F 53.1 °F 59% 29.94 in 10.0 mi North 6.9 mph 16.1 mph N/A   Clear
11:54 AM 70.0 °F 55.0 °F 59% 29.93 in 10.0 mi North 11.5 mph - N/A   Clear
12:54 PM 72.0 °F 54.0 °F 53% 29.92 in 10.0 mi NNW 9.2 mph - N/A   Clear
1:54 PM 75.0 °F 53.1 °F 46% 29.90 in 10.0 mi NNW 10.4 mph - N/A   Clear
2:54 PM 77.0 °F 54.0 °F 45% 29.88 in 10.0 mi NNW 11.5 mph 17.3 mph N/A   Clear
3:54 PM 77.0 °F 52.0 °F 42% 29.88 in 10.0 mi NNW 16.1 mph 19.6 mph N/A   Clear
4:54 PM 77.0 °F 51.1 °F 40% 29.88 in 10.0 mi North 10.4 mph 18.4 mph N/A   Clear
5:54 PM 77.0 °F 51.1 °F 40% 29.89 in 10.0 mi NNW 13.8 mph 19.6 mph N/A   Clear
6:54 PM 73.9 °F 52.0 °F 46% 29.89 in 10.0 mi North 6.9 mph - N/A   Clear
7:54 PM 72.0 °F 55.0 °F 55% 29.90 in 10.0 mi NNW 6.9 mph - N/A   Clear
8:54 PM 68.0 °F 55.0 °F 63% 29.90 in 10.0 mi Calm Calm - N/A   Clear
9:54 PM 63.0 °F 57.0 °F 81% 29.91 in 10.0 mi SW 3.5 mph - N/A   Clear
10:54 PM 62.1 °F 57.0 °F 84% 29.93 in 10.0 mi Calm Calm - N/A   Clear
11:54 PM 60.1 °F 55.9 °F 86% 29.93 in 10.0 mi Calm Calm - N/A   Clear